• In Czech Republic
  • List of Countries
  • For 7 days
  • Water Temperature
  • Satellite Maps
  • Weather Map
  • Weather Widgets
  • user-avatar
    Login

    Hourly Weather Wlora

    Today, 26 September, Wednesday

    Time Temperature Precipitation Wind Pressure Humidity
    00:00 +16°C° 0 mm 8 mps 767 mmHg 32%
    01:00 +16°C° 0 mm 8 mps 767 mmHg 32%
    02:00 +15°C° 0 mm 8 mps 767 mmHg 33%
    03:00 +15°C° 0 mm 7 mps 767 mmHg 35%
    04:00 +14°C° 0 mm 7 mps 768 mmHg 37%
    05:00 +14°C° 0 mm 7 mps 768 mmHg 38%
    06:00 +14°C° 0 mm 7 mps 768 mmHg 38%
    07:00 +15°C° 0 mm 7 mps 768 mmHg 39%
    08:00 +16°C° 0 mm 7 mps 768 mmHg 38%
    09:00 +17°C° 0 mm 7 mps 768 mmHg 37%
    10:00 +20°C° 0 mm 7 mps 769 mmHg 35%
    11:00 +20°C° 0 mm 6 mps 769 mmHg 35%
    12:00 +21°C° 0 mm 6 mps 768 mmHg 35%
    13:00 +21°C° 0 mm 5 mps 768 mmHg 35%
    14:00 +21°C° 0 mm 6 mps 768 mmHg 35%
    15:00 +21°C° 0 mm 6 mps 768 mmHg 34%
    16:00 +21°C° 0 mm 6 mps 768 mmHg 34%
    17:00 +18°C° 0 mm 7 mps 768 mmHg 36%
    18:00 +17°C° 0 mm 7 mps 769 mmHg 37%
    19:00 +15°C° 0 mm 7 mps 769 mmHg 39%
    20:00 +15°C° 0 mm 7 mps 770 mmHg 39%
    21:00 +14°C° 0 mm 7 mps 770 mmHg 39%
    22:00 +14°C° 0 mm 7 mps 770 mmHg 39%
    23:00 +12°C° 0 mm 7 mps 770 mmHg 40%

    Tomorrow, 27 September, Thursday

    Time Temperature Precipitation Wind Pressure Humidity
    00:00 +12°C° 0 mm 7 mps 770 mmHg 41%
    01:00 +11°C° 0 mm 7 mps 770 mmHg 42%
    02:00 +11°C° 0 mm 7 mps 770 mmHg 44%
    03:00 +10°C° 0 mm 8 mps 770 mmHg 45%
    04:00 +10°C° 0 mm 8 mps 769 mmHg 47%
    05:00 +11°C° 0 mm 8 mps 769 mmHg 46%
    06:00 +11°C° 0 mm 7 mps 769 mmHg 45%
    07:00 +12°C° 0 mm 7 mps 769 mmHg 44%
    08:00 +15°C° 0 mm 7 mps 769 mmHg 36%
    09:00 +17°C° 0 mm 7 mps 769 mmHg 28%
    10:00 +20°C° 0 mm 7 mps 769 mmHg 20%
    11:00 +21°C° 0 mm 6 mps 768 mmHg 18%
    12:00 +22°C° 0 mm 6 mps 768 mmHg 17%
    13:00 +23°C° 0 mm 5 mps 767 mmHg 15%
    14:00 +23°C° 0 mm 6 mps 766 mmHg 15%
    15:00 +23°C° 0 mm 6 mps 766 mmHg 16%
    16:00 +23°C° 0 mm 6 mps 765 mmHg 16%
    17:00 +22°C° 0 mm 6 mps 765 mmHg 18%
    18:00 +20°C° 0 mm 6 mps 765 mmHg 20%
    19:00 +17°C° 0 mm 6 mps 765 mmHg 23%
    20:00 +17°C° 0 mm 5 mps 765 mmHg 23%
    21:00 +17°C° 0 mm 5 mps 765 mmHg 22%
    22:00 +17°C° 0 mm 5 mps 765 mmHg 22%
    23:00 +18°C° 0 mm 4 mps 765 mmHg 26%

    Day after tomorrow, 28 September, Friday

    Time Temperature Precipitation Wind Pressure Humidity
    00:00 +18°C° 0 mm 4 mps 765 mmHg 30%
    01:00 +17°C° 0 mm 4 mps 764 mmHg 34%
    02:00 +16°C° 0 mm 5 mps 764 mmHg 34%
    03:00 +16°C° 0 mm 5 mps 763 mmHg 35%
    04:00 +16°C° 0 mm 5 mps 763 mmHg 35%
    05:00 +16°C° 0 mm 6 mps 762 mmHg 34%
    06:00 +17°C° 0 mm 6 mps 762 mmHg 34%
    07:00 +17°C° 0 mm 7 mps 761 mmHg 33%
    08:00 +20°C° 0 mm 7 mps 761 mmHg 31%
    09:00 +23°C° 0 mm 6 mps 761 mmHg 30%
    10:00 +26°C° 0 mm 6 mps 761 mmHg 29%
    11:00 +27°C° 0 mm 6 mps 760 mmHg 29%
    12:00 +28°C° 0 mm 6 mps 760 mmHg 29%
    13:00 +29°C° 0 mm 5 mps 759 mmHg 30%
    14:00 +29°C° 0 mm 6 mps 759 mmHg 30%
    15:00 +29°C° 0 mm 7 mps 759 mmHg 30%
    16:00 +29°C° 0 mm 7 mps 758 mmHg 30%
    17:00 +27°C° 0 mm 7 mps 758 mmHg 33%
    18:00 +26°C° 0 mm 7 mps 759 mmHg 35%
    19:00 +23°C° 0 mm 7 mps 759 mmHg 38%
    20:00 +23°C° 0 mm 6 mps 759 mmHg 38%
    21:00 +22°C° 0 mm 5 mps 759 mmHg 39%
    22:00 +21°C° 0 mm 5 mps 759 mmHg 40%
    23:00 +21°C° 0 mm 4 mps 759 mmHg 41%

    29 September, Saturday

    Time Temperature Precipitation Wind Pressure Humidity
    00:00 +21°C° 0 mm 4 mps 758 mmHg 43%
    01:00 +21°C° 0 mm 3 mps 758 mmHg 44%
    02:00 +20°C° 0 mm 4 mps 758 mmHg 47%
    03:00 +20°C° 0 mm 4 mps 758 mmHg 50%
    04:00 +19°C° 0 mm 4 mps 757 mmHg 53%
    05:00 +20°C° 0 mm 4 mps 757 mmHg 53%
    06:00 +20°C° 0 mm 4 mps 758 mmHg 53%
    07:00 +21°C° 0 mm 5 mps 758 mmHg 54%
    08:00 +23°C° 0 mm 5 mps 758 mmHg 49%
    09:00 +26°C° 0 mm 5 mps 758 mmHg 45%
    10:00 +28°C° 0 mm 6 mps 758 mmHg 40%
    11:00 +29°C° 0 mm 6 mps 757 mmHg 38%
    12:00 +30°C° 0 mm 7 mps 757 mmHg 37%
    13:00 +32°C° 0 mm 7 mps 757 mmHg 35%
    14:00 +30°C° 0 mm 7 mps 757 mmHg 35%
    15:00 +31°C° 0 mm 8 mps 757 mmHg 36%
    16:00 +29°C° 0 mm 8 mps 757 mmHg 37%
    17:00 +27°C° 0 mm 8 mps 757 mmHg 40%
    18:00 +26°C° 0 mm 8 mps 757 mmHg 43%
    19:00 +23°C° 0 mm 7 mps 758 mmHg 47%
    20:00 +22°C° 0 mm 7 mps 758 mmHg 43%
    21:00 +22°C° 0 mm 6 mps 758 mmHg 40%
    22:00 +21°C° 0 mm 6 mps 758 mmHg 37%
    23:00 +21°C° 0 mm 5 mps 758 mmHg 34%

    30 September, Sunday

    Time Temperature Precipitation Wind Pressure Humidity
    00:00 +20°C° 0 mm 5 mps 758 mmHg 31%
    01:00 +20°C° 0 mm 5 mps 759 mmHg 28%
    02:00 +19°C° 0 mm 5 mps 759 mmHg 30%
    03:00 +19°C° 0 mm 5 mps 759 mmHg 31%
    04:00 +17°C° 0 mm 5 mps 759 mmHg 32%
    05:00 +19°C° 0 mm 5 mps 759 mmHg 35%
    06:00 +19°C° 0 mm 4 mps 759 mmHg 39%
    07:00 +20°C° 0 mm 4 mps 759 mmHg 43%
    08:00 +22°C° 0 mm 4 mps 759 mmHg 39%
    09:00 +25°C° 0 mm 4 mps 759 mmHg 35%
    10:00 +27°C° 0 mm 4 mps 760 mmHg 31%
    11:00 +28°C° 0 mm 4 mps 759 mmHg 29%
    12:00 +28°C° 0 mm 5 mps 759 mmHg 28%
    13:00 +29°C° 0 mm 5 mps 759 mmHg 27%
    14:00 +28°C° 0 mm 6 mps 759 mmHg 30%
    15:00 +28°C° 0 mm 6 mps 759 mmHg 34%
    16:00 +27°C° 0 mm 6 mps 759 mmHg 38%
    17:00 +24°C° 0 mm 6 mps 760 mmHg 46%
    18:00 +23°C° 0 mm 5 mps 760 mmHg 54%
    19:00 +21°C° 0 mm 5 mps 760 mmHg 62%
    20:00 +21°C° 0 mm 5 mps 760 mmHg 63%
    21:00 +20°C° 0 mm 4 mps 761 mmHg 64%
    22:00 +20°C° 0 mm 4 mps 761 mmHg 65%
    23:00 +20°C° 0 mm 4 mps 761 mmHg 66%

    1 October, Monday

    Time Temperature Precipitation Wind Pressure Humidity
    00:00 +19°C° 0 mm 4 mps 760 mmHg 66%
    01:00 +18°C° 0 mm 3 mps 760 mmHg 67%
    02:00 +18°C° 0 mm 3 mps 760 mmHg 66%
    03:00 +18°C° 0 mm 3 mps 760 mmHg 64%
    04:00 +18°C° 0 mm 3 mps 760 mmHg 63%
    05:00 +19°C° 0.1 mm 3 mps 760 mmHg 60%
    06:00 +19°C° 0.1 mm 3 mps 760 mmHg 57%
    07:00 +20°C° 0.1 mm 2 mps 760 mmHg 54%
    08:00 +21°C° 0.2 mm 2 mps 760 mmHg 51%
    09:00 +24°C° 0.2 mm 2 mps 760 mmHg 49%
    10:00 +25°C° 0.2 mm 1 mps 760 mmHg 46%
    11:00 +25°C° 0.1 mm 2 mps 760 mmHg 47%
    12:00 +26°C° 0.1 mm 2 mps 759 mmHg 48%
    13:00 +26°C° 0.1 mm 2 mps 759 mmHg 49%
    14:00 +25°C° 0 mm 2 mps 759 mmHg 51%
    15:00 +25°C° 0 mm 2 mps 759 mmHg 53%
    16:00 +25°C° 0 mm 2 mps 759 mmHg 56%
    17:00 +23°C° 0 mm 2 mps 759 mmHg 61%
    18:00 +21°C° 0 mm 2 mps 759 mmHg 66%
    19:00 +20°C° 0 mm 2 mps 759 mmHg 71%
    20:00 +20°C° 0 mm 2 mps 759 mmHg 73%
    21:00 +19°C° 0 mm 2 mps 760 mmHg 75%
    22:00 +19°C° 0 mm 2 mps 760 mmHg 77%
    23:00 +19°C° 0 mm 2 mps 760 mmHg 78%
    Show more